Le nostre stazioni meteo in Italia

Pubblicità
Il mio iltempo24.it
Genova/Sestri, Italia (16120): Temperatura & dewpoint: 12.03.2019 20:00:00 - 18.03.2019 20:00:00 (CET)Genova/Sestri, Italia (16120): velocità del vento: 12.03.2019 20:00:00 - 18.03.2019 20:00:00 (CET)Genova/Sestri, Italia (16120): direzione del vento: 12.03.2019 20:00:00 - 18.03.2019 20:00:00 (CET)Genova/Sestri, Italia (16120): reduced air pressure: 12.03.2019 20:00:00 - 18.03.2019 20:00:00 (CET)Genova/Sestri, Italia (16120): visibility: 12.03.2019 20:00:00 - 18.03.2019 20:00:00 (CET)
Data & Tempo tt [°C] td [°C] ff [km/h] ff [kn] dd ppp [hPa] vv [km]
18.03.2019 20:00:00 - - - - - - -
18.03.2019 19:00:00 15,3 -8,9 16 9 NNE 1014,8 10
18.03.2019 18:00:00 16,0 -10,0 16 9 N - 10
18.03.2019 17:00:00 17,0 -11,0 18 10 NNO - 10
18.03.2019 16:00:00 17,5 -9,5 18 10 NNO 1013,2 10
18.03.2019 15:00:00 17,0 -10,0 22 12 NNO - 10
18.03.2019 14:00:00 17,0 -4,0 16 9 NNO - 10
18.03.2019 13:00:00 16,2 -4,9 26 14 NNO 1013,7 10
18.03.2019 12:00:00 16,0 -5,0 18 10 N - 10
18.03.2019 11:00:00 15,0 -6,0 22 12 NNE - 10
18.03.2019 10:00:00 14,8 -6,3 15 8 - 1013,3 10
18.03.2019 09:00:00 15,0 -6,0 11 6 N - 10
18.03.2019 08:00:00 13,0 -3,0 8 4 - - 10
18.03.2019 07:00:00 12,6 -1,8 18 10 N 1011,0 10
18.03.2019 06:00:00 12,0 5,0 9 5 - - 10
18.03.2019 05:00:00 12,0 1,0 16 9 NE - 10
18.03.2019 04:00:00 12,3 4,9 11 6 N 1009,5 10
18.03.2019 03:00:00 12,0 12,0 11 6 OSO - 9
18.03.2019 02:00:00 12,0 12,0 31 17 ESE - 6
18.03.2019 01:00:00 12,3 10,4 28 15 SE 1010,3 8
18.03.2019 00:00:00 13,0 11,0 29 16 SE - 10
17.03.2019 23:00:00 13,0 11,0 26 14 SSE - 10
17.03.2019 22:00:00 13,3 10,4 34 18 SE 1012,0 10
17.03.2019 21:00:00 13,0 10,0 31 17 SE - 10
17.03.2019 20:00:00 14,0 10,0 29 16 SSE - 10
17.03.2019 19:00:00 13,3 10,1 26 14 SE 1012,9 10
17.03.2019 18:00:00 13,0 10,0 26 14 SSE - 10
17.03.2019 17:00:00 14,0 9,0 18 10 SSE - 10
17.03.2019 16:00:00 13,5 9,5 15 8 S 1014,2 10
17.03.2019 15:00:00 14,0 9,0 15 8 S - 10
17.03.2019 14:00:00 15,0 9,0 22 12 S - 10
17.03.2019 13:00:00 15,1 10,2 21 11 SSO 1016,0 10
17.03.2019 12:00:00 15,0 10,0 16 9 S - 10
17.03.2019 11:00:00 14,0 10,0 13 7 S - 10
17.03.2019 10:00:00 13,5 9,6 15 8 S 1017,3 10
17.03.2019 09:00:00 14,0 10,0 11 6 S - 10
17.03.2019 08:00:00 13,0 10,0 9 5 S - 10
17.03.2019 07:00:00 13,3 9,7 11 6 S 1016,7 10
17.03.2019 06:00:00 13,0 10,0 16 9 S - 10
17.03.2019 05:00:00 13,0 10,0 13 7 S - 10
17.03.2019 04:00:00 13,2 11,2 13 7 SSE 1017,1 10
17.03.2019 03:00:00 14,0 11,0 22 12 ESE - 10
17.03.2019 02:00:00 13,0 10,0 21 11 ESE - 10
17.03.2019 01:00:00 13,4 10,3 18 10 SE 1018,3 10
17.03.2019 00:00:00 14,0 10,0 15 8 SE - 10
16.03.2019 23:00:00 13,0 11,0 13 7 SE - 10
16.03.2019 22:00:00 12,6 11,2 5 3 SSE 1018,9 10
16.03.2019 21:00:00 12,0 11,0 9 5 ESE - 10
16.03.2019 20:00:00 12,0 10,0 5 3 ESE - 10
16.03.2019 19:00:00 13,1 10,9 8 4 SSE 1018,1 10
16.03.2019 18:00:00 14,0 11,0 8 4 SSE - 10
16.03.2019 17:00:00 15,0 10,0 8 4 SO - 10
16.03.2019 16:00:00 15,1 10,7 5 3 S 1017,5 10
16.03.2019 15:00:00 15,0 11,0 13 7 SSE - 10
16.03.2019 14:00:00 16,0 12,0 13 7 SSE - 10
16.03.2019 13:00:00 16,3 11,0 13 7 SSE 1018,4 10
16.03.2019 12:00:00 15,0 11,0 13 7 SE - 10
16.03.2019 11:00:00 15,0 11,0 16 9 SE - 10
16.03.2019 10:00:00 15,0 9,8 8 4 SE 1018,2 10
16.03.2019 09:00:00 14,0 9,0 8 4 E - 10
16.03.2019 08:00:00 13,0 9,0 4 2 NNE - 10
16.03.2019 07:00:00 13,0 9,0 8 4 NNE - 10
16.03.2019 06:00:00 13,0 9,0 8 4 NNE - 10
16.03.2019 05:00:00 12,0 9,0 5 3 NNE - 10
16.03.2019 04:00:00 12,1 8,3 5 3 NNE 1015,8 10
16.03.2019 03:00:00 12,0 8,0 8 4 NNE - 10
16.03.2019 02:00:00 12,0 8,0 5 3 NNE - 10
16.03.2019 01:00:00 12,0 8,0 8 4 NNE - 10
16.03.2019 00:00:00 12,0 8,0 9 5 NNE - 10
15.03.2019 23:00:00 12,0 9,0 5 3 NNE - 10
15.03.2019 22:00:00 12,4 8,7 5 3 NNE 1016,1 10
15.03.2019 21:00:00 13,0 9,0 4 2 NNO - 10
15.03.2019 20:00:00 13,0 10,0 11 6 ESE - 10
15.03.2019 19:00:00 12,7 10,3 8 4 ESE 1015,2 10
15.03.2019 18:00:00 14,0 11,0 11 6 SE - 10
15.03.2019 17:00:00 14,0 11,0 16 9 ESE - 10
15.03.2019 16:00:00 14,5 11,2 18 10 ESE 1014,2 10
15.03.2019 15:00:00 14,0 10,0 15 8 SE - 10
15.03.2019 14:00:00 14,0 8,0 5 3 SSE - 10
15.03.2019 13:00:00 14,9 7,6 8 4 SE 1014,1 10
15.03.2019 12:00:00 15,0 8,0 5 3 S - 10
15.03.2019 11:00:00 14,0 8,0 8 4 SSE - 10
15.03.2019 10:00:00 13,8 6,7 9 5 SE 1013,6 10
15.03.2019 09:00:00 13,0 5,0 4 2 - - 10
15.03.2019 08:00:00 10,0 4,0 9 5 NNE - 10
15.03.2019 07:00:00 8,5 3,5 9 5 NNE 1012,2 10
15.03.2019 06:00:00 9,0 3,0 11 6 N - 10
15.03.2019 05:00:00 8,0 3,0 13 7 NNE - 10
15.03.2019 04:00:00 8,5 2,6 9 5 NNE 1010,7 10
15.03.2019 03:00:00 9,0 2,0 11 6 NNE - 10
15.03.2019 02:00:00 9,0 2,0 11 6 NNE - 10
15.03.2019 01:00:00 8,9 2,5 11 6 NNE 1011,0 10
15.03.2019 00:00:00 9,0 4,0 9 5 NNE - 10
14.03.2019 23:00:00 10,0 5,0 9 5 NNE - 10
14.03.2019 22:00:00 10,5 4,8 9 5 NNE 1011,1 10
14.03.2019 21:00:00 11,0 5,0 9 5 E - 10
14.03.2019 20:00:00 11,0 6,0 13 7 ESE - 10
14.03.2019 19:00:00 11,5 5,1 13 7 SE 1011,3 10
14.03.2019 18:00:00 13,0 6,0 11 6 SSE - 10
14.03.2019 17:00:00 14,0 5,0 11 6 SSE - 10
14.03.2019 16:00:00 14,3 7,6 22 12 SE 1012,2 10
14.03.2019 15:00:00 15,0 3,0 13 7 SE - 10
14.03.2019 14:00:00 14,0 4,0 8 4 SSE - 10
14.03.2019 13:00:00 14,4 3,1 9 5 SSO 1014,7 10
14.03.2019 12:00:00 14,0 -2,0 5 3 SSO - 10
14.03.2019 11:00:00 15,0 -3,0 4 2 - - 10
14.03.2019 10:00:00 13,1 1,7 8 4 SSO 1016,1 10
14.03.2019 09:00:00 12,0 -4,0 4 2 - - 10
14.03.2019 08:00:00 9,0 -5,0 9 5 NNE - 10
14.03.2019 07:00:00 9,2 -6,2 5 3 N 1015,5 10
14.03.2019 06:00:00 9,0 -4,0 11 6 NNE - 10
14.03.2019 05:00:00 9,0 -5,0 11 6 NNE - 10
14.03.2019 04:00:00 8,9 -3,6 9 5 NNE 1014,9 10
14.03.2019 03:00:00 9,0 -3,0 9 5 NNE - 10
14.03.2019 02:00:00 10,0 -2,0 8 4 N - 10
14.03.2019 01:00:00 9,5 -2,9 5 3 N 1014,8 10
14.03.2019 00:00:00 9,0 1,0 4 2 - - 10
13.03.2019 23:00:00 9,0 4,0 4 2 - - 10
13.03.2019 22:00:00 10,3 5,2 8 4 NNE 1013,3 10
13.03.2019 21:00:00 11,0 6,0 5 3 N - 10
13.03.2019 20:00:00 11,0 7,0 5 3 - - 10
13.03.2019 19:00:00 11,7 7,3 16 9 ESE 1011,4 10
13.03.2019 18:00:00 13,0 8,0 16 9 SE - 10
13.03.2019 17:00:00 14,0 8,0 21 11 ESE - 10
13.03.2019 16:00:00 13,8 8,0 13 7 SE 1009,8 10
13.03.2019 15:00:00 14,0 8,0 16 9 SE - 10
13.03.2019 14:00:00 14,0 7,0 11 6 SSE - 10
13.03.2019 13:00:00 13,4 7,9 9 5 SSE 1011,5 10
13.03.2019 12:00:00 14,0 8,0 5 3 S - 10
13.03.2019 11:00:00 13,0 8,0 5 3 SE - 10
13.03.2019 10:00:00 12,9 7,3 9 5 ESE 1013,1 10
13.03.2019 09:00:00 12,0 8,0 16 9 SE - 10
13.03.2019 08:00:00 12,0 8,0 21 11 ESE - 10
13.03.2019 07:00:00 11,8 7,9 18 10 SE 1013,5 10
13.03.2019 06:00:00 12,0 7,0 16 9 SSE - 10
13.03.2019 05:00:00 12,0 5,0 16 9 SSE - 10
13.03.2019 04:00:00 11,1 4,9 24 13 E 1016,0 10
13.03.2019 03:00:00 11,0 5,0 24 13 ESE - 10
13.03.2019 02:00:00 11,0 5,0 15 8 SSE - 10
13.03.2019 01:00:00 11,3 4,7 15 8 SSE 1019,7 10
13.03.2019 00:00:00 12,0 5,0 13 7 S - 10
12.03.2019 23:00:00 12,0 4,0 11 6 S - 10
12.03.2019 22:00:00 11,7 3,5 15 8 S 1021,5 10
12.03.2019 21:00:00 12,0 2,0 11 6 S - 10
12.03.2019 20:00:00 12,0 3,0 13 7 S - 10

tt = Temperatura
td = dewpoint
ff = velocità del vento
dd = direzione del vento
ppp = reduced air pressure
vv = visibility

Stazioni seguenti

WeatherPro
AMSI
MeteoEarth